GW1107 Weather Reports


time (UTC)temp
F
wind
direction
speed
knots
gust
knots
rain 1hr
in
rain 24hr
in
rain mn
in
humidity
%
barometer
mb
20260507161540 40 0 0.0 0.9 0.00 0.32 0.01 89 1016.7
20260507160057 38 0 0.0 0.9 0.00 0.32 0.01 90 1016.7
20260507154536 38 94 0.0 0.9 0.00 0.32 0.01 91 1016.7
20260507153035 37 153 0.0 0.9 0.00 0.32 0.01 91 1016.5
20260507151531 37 0 0.0 0.9 0.00 0.32 0.01 91 1016.7
20260507150038 37 0 0.0 0.0 0.00 0.32 0.01 90 1016.7
20260507144535 37 0 0.0 0.0 0.00 0.32 0.01 90 1016.5
20260507143035 0 0 0.0 0.0 0.00 0.32 0.01 1016.5
20260507141537 37 172 0.0 0.9 0.00 0.32 0.01 87 1016.6
20260507140041 37 0 0.0 1.7 0.00 0.32 0.01 87 1016.6
20260507134536 37 0 0.0 0.9 0.00 0.32 0.01 88 1016.7
20260507133036 37 0 0.0 0.0 0.00 0.32 0.01 88 1016.8
20260507131605 37 78 0.0 0.9 0.00 0.32 0.01 88 1016.6
20260507130035 38 0 0.0 1.7 0.00 0.32 0.01 87 1016.5
20260507124532 37 0 0.0 0.9 0.00 0.32 0.01 87 1016.4
20260507123041 38 0 0.0 1.7 0.00 0.32 0.01 88 1016.3
20260507121536 38 94 0.0 0.9 0.00 0.32 0.01 87 1016.4
20260507120040 38 0 0.9 3.5 0.00 0.32 0.01 84 1016.3
20260507114536 37 0 0.9 3.5 0.00 0.32 0.01 88 1016.3
20260507113100 36 0 0.0 0.9 0.00 0.32 0.01 94 1016.3
20260507111534 36 0 0.0 0.9 0.00 0.32 0.01 94 1016.3
20260507110040 37 94 0.0 1.7 0.00 0.32 0.01 93 1016.3
20260507104539 37 0 0.0 0.9 0.00 0.32 0.01 93 1016.4
20260507103036 37 0 0.0 0.0 0.00 0.32 0.01 92 1016.4
20260507101535 37 0 0.0 0.9 0.00 0.32 0.01 91 1016.4
20260507100044 38 0 0.0 0.9 0.00 0.32 0.01 90 1016.4
20260507094531 38 0 0.0 0.9 0.00 0.32 0.01 90 1016.4
20260507093040 38 219 0.0 1.7 0.00 0.32 0.01 92 1016.2
20260507091539 38 174 0.9 1.7 0.00 0.32 0.01 93 1016.2
20260507090035 38 0 0.0 0.9 0.00 0.32 0.01 92 1016.0
20260507084549 39 180 0.0 2.6 0.00 0.32 0.01 92 1015.9
20260507083031 39 0 0.0 0.9 0.00 0.32 0.01 93 1015.8
20260507081530 39 0 0.0 2.6 0.05 0.32 0.01 93 1015.8
20260507080035 39 160 0.9 1.7 0.07 0.31 0.00 93 1015.7
20260507074532 39 165 0.0 3.5 0.09 0.31 0.31 93 1015.6
20260507073030 39 199 0.0 0.9 0.09 0.29 0.29 93 1015.6
20260507071537 39 0 0.0 1.7 0.08 0.27 0.27 93 1015.5
20260507070033 40 0 0.0 0.9 0.07 0.24 0.24 93 1015.4
20260507064533 40 203 0.0 0.0 0.06 0.22 0.22 93 1015.3
20260507063037 40 203 0.0 1.7 0.05 0.20 0.20 93 1015.2
20260507061538 40 210 0.0 1.7 0.04 0.19 0.19 92 1015.1
20260507060043 41 88 0.0 0.9 0.02 0.17 0.17 92 1014.9
20260507054543 41 0 0.0 2.6 0.02 0.16 0.16 91 1014.6
20260507053038 40 207 0.0 0.9 0.06 0.15 0.15 92 1014.6
20260507051536 40 191 0.0 0.9 0.08 0.15 0.15 92 1014.4
20260507050058 40 40 0.0 2.6 0.12 0.15 0.15 91 1014.4
20260507044545 40 207 3.5 10.4 0.11 0.13 0.13 91 1014.6
20260507043040 40 208 0.9 6.1 0.07 0.09 0.09 90 1014.4
20260507041544 41 146 0.9 7.0 0.06 0.07 0.07 89 1014.4
20260507040036 42 229 1.7 4.3 0.03 0.03 0.03 86 1014.2
20260507034540 43 184 0.0 0.9 0.02 0.02 0.02 88 1014.0
20260507033041 44 0 0.0 2.6 0.02 0.02 0.02 85 1013.6
20260507031602 45 211 0.0 1.7 0.01 0.01 0.01 81 1013.5
20260507030036 46 0 0.9 2.6 0.00 0.00 0.00 77 1013.3
20260507024540 46 188 0.0 1.7 0.00 0.00 0.00 76 1013.3
20260507023032 46 200 0.0 0.9 0.00 0.00 0.00 82 1013.2
20260507021547 45 0 0.0 2.6 0.00 0.00 0.00 84 1013.0
20260507020035 45 226 0.9 3.5 0.00 0.00 0.00 79 1013.1
20260507014532 45 240 0.9 2.6 0.00 0.00 0.00 83 1013.0
20260507013035 45 278 0.9 2.6 0.00 0.00 0.00 80 1013.1
20260507011536 46 202 1.7 5.2 0.00 0.00 0.00 79 1013.1
20260507010040 47 236 0.9 5.2 0.00 0.00 0.00 77 1013.0
20260507004530 47 151 0.9 3.5 0.00 0.00 0.00 78 1012.9
20260507003035 47 219 0.9 6.1 0.00 0.00 0.00 78 1012.8
20260507001533 47 246 0.9 4.3 0.00 0.00 0.00 76 1012.7
20260507000034 47 252 0.9 7.0 0.00 0.00 0.00 76 1012.8
20260506234530 48 247 0.9 4.3 0.00 0.00 0.00 75 1012.6
20260506233036 47 270 1.7 5.2 0.00 0.00 0.00 75 1012.5
20260506231535 47 298 2.6 6.1 0.00 0.00 0.00 75 1012.4
20260506230034 47 347 2.6 6.1 0.00 0.00 0.00 74 1012.3
20260506224533 48 274 0.9 6.1 0.00 0.00 0.00 71 1012.2
20260506223030 48 223 1.7 7.8 0.00 0.00 0.00 68 1012.2
20260506221535 48 203 3.5 7.8 0.00 0.00 0.00 65 1012.0
20260506220036 48 131 2.6 7.8 0.00 0.00 0.00 65 1011.9
20260506214534 48 283 0.9 4.3 0.00 0.00 0.00 68 1011.9
20260506213032 48 356 0.9 4.3 0.00 0.00 0.00 69 1011.7
20260506211533 48 270 2.6 6.1 0.00 0.00 0.00 70 1011.7
20260506210038 49 14 0.9 4.3 0.00 0.00 0.00 67 1011.6
20260506204548 49 302 1.7 3.5 0.00 0.00 0.00 68 1011.5
20260506203034 47 218 1.7 4.3 0.00 0.00 0.00 72 1011.5
20260506201534 47 233 1.7 4.3 0.00 0.00 0.00 73 1011.3
20260506200034 47 165 0.9 4.3 0.00 0.00 0.00 72 1011.2
20260506194542 46 0 0.9 4.3 0.00 0.00 0.00 73 1011.2
20260506193034 46 333 0.0 4.3 0.00 0.00 0.00 74 1011.1
20260506191534 47 229 0.9 3.5 0.00 0.00 0.00 72 1011.1
20260506190033 46 25 0.0 3.5 0.00 0.00 0.00 72 1011.0
20260506184530 45 49 0.9 1.7 0.00 0.00 0.00 72 1010.9
20260506183033 45 71 0.9 1.7 0.00 0.00 0.00 74 1010.9
20260506181536 45 351 0.0 1.7 0.00 0.00 0.00 74 1010.8
20260506180036 44 0 0.0 1.7 0.00 0.00 0.00 76 1010.7
20260506174535 44 197 0.0 1.7 0.00 0.00 0.00 76 1010.6
20260506173033 43 0 0.0 1.7 0.00 0.00 0.00 76 1010.6
20260506171540 43 6 0.0 0.9 0.00 0.00 0.00 78 1010.5
20260506170035 43 0 0.0 0.9 0.00 0.00 0.00 78 1010.4
20260506164530 42 0 0.0 0.9 0.00 0.00 0.00 79 1010.3
20260506163036 42 0 0.0 2.6 0.00 0.00 0.00 80 1010.2